Location: Stigler
(35.2540°N, 95.1230°W)
Time: 23:53:44
(UTC-05:00)

OAO 3 Rocket - Pass Details

Date: 26 September 2017
Orbit: 630 x 683 km, 35.0° (Epoch: 20 October)

Event Time Altitude Azimuth Distance (km) Brightness Sun altitude
Rises 20:21:20 0° 221° (SW) 2,999 7.0 -15.1°
Reaches altitude 10° 20:24:01 10° 209° (SSW) 2,080 6.0 -15.7°
Maximum altitude 20:28:03 26° 153° (SSE) 1,279 4.3 -16.5°
Enters shadow 20:29:01 25° 133° (SE) 1,334 4.3 -16.7°
